Time,TemperatureF,DewpointF,PressureIn,WindDirection,WindDirectionDegrees,WindSpeedMPH,WindSpeedGustMPH,Humidity,HourlyPrecipIn,Conditions,Clouds,dailyrainin,SoftwareType,DateUTC
2013-04-18 00:03:00,63.0,61.0,30.09,East,101,0.0,-999.0,94,-99.99,,,-99.99,,2013-04-18 04:03:00,
2013-04-18 00:13:00,63.0,61.0,30.09,East,101,0.0,-999.0,94,-99.99,,,-99.99,,2013-04-18 04:13:00,
2013-04-18 00:23:00,62.0,60.0,30.09,East,101,0.0,-999.0,94,-99.99,,,-99.99,,2013-04-18 04:23:00,
2013-04-18 00:33:00,62.0,60.0,30.09,East,101,0.0,-999.0,94,-99.99,,,-99.99,,2013-04-18 04:33:00,
2013-04-18 00:43:00,63.0,61.0,30.09,East,101,0.0,-999.0,94,-99.99,,,-99.99,,2013-04-18 04:43:00,
2013-04-18 00:53:00,63.0,61.0,30.09,East,101,0.0,-999.0,94,-99.99,,,-99.99,,2013-04-18 04:53:00,
2013-04-18 01:02:00,62.0,60.0,30.09,East,101,0.0,-999.0,94,-99.99,,,-99.99,,2013-04-18 05:02:00,
2013-04-18 01:12:00,62.0,60.0,30.09,East,101,0.0,-999.0,94,-99.99,,,-99.99,,2013-04-18 05:12:00,
2013-04-18 01:22:00,62.0,60.0,30.09,East,101,0.0,-999.0,94,-99.99,,,-99.99,,2013-04-18 05:22:00,
2013-04-18 01:33:00,62.0,61.0,30.09,East,101,0.0,-999.0,95,-99.99,,,-99.99,,2013-04-18 05:33:00,
2013-04-18 01:42:00,62.0,61.0,30.08,East,101,0.0,-999.0,95,-99.99,,,-99.99,,2013-04-18 05:42:00,
2013-04-18 01:52:00,62.0,61.0,30.08,East,101,0.0,-999.0,95,-99.99,,,-99.99,,2013-04-18 05:52:00,
2013-04-18 02:02:00,62.0,61.0,30.07,East,101,0.0,-999.0,95,-99.99,,,-99.99,,2013-04-18 06:02:00,
2013-04-18 02:12:00,62.0,61.0,30.07,East,101,0.0,-999.0,95,-99.99,,,-99.99,,2013-04-18 06:12:00,
2013-04-18 02:22:00,62.0,60.0,30.05,East,101,1.0,-999.0,94,-99.99,,,-99.99,,2013-04-18 06:22:00,
2013-04-18 02:32:00,62.0,60.0,30.05,ESE,114,1.0,-999.0,94,-99.99,,,-99.99,,2013-04-18 06:32:00,
2013-04-18 02:42:00,62.0,60.0,30.05,ESE,114,1.0,-999.0,94,-99.99,,,-99.99,,2013-04-18 06:42:00,
2013-04-18 02:52:00,62.0,60.0,30.05,ESE,113,0.0,-999.0,94,-99.99,,,-99.99,,2013-04-18 06:52:00,
2013-04-18 03:02:00,62.0,60.0,30.05,ESE,113,0.0,-999.0,94,-99.99,,,-99.99,,2013-04-18 07:02:00,
2013-04-18 03:12:00,61.0,59.0,30.06,ESE,113,0.0,-999.0,94,-99.99,,,-99.99,,2013-04-18 07:12:00,
2013-04-18 03:22:00,61.0,59.0,30.06,ESE,113,0.0,-999.0,94,-99.99,,,-99.99,,2013-04-18 07:22:00,
2013-04-18 03:32:00,61.0,60.0,30.06,ESE,113,0.0,-999.0,95,-99.99,,,-99.99,,2013-04-18 07:32:00,
2013-04-18 03:42:00,61.0,60.0,30.07,ESE,113,0.0,-999.0,95,-99.99,,,-99.99,,2013-04-18 07:42:00,
2013-04-18 03:52:00,61.0,60.0,30.07,ESE,113,0.0,-999.0,95,-99.99,,,-99.99,,2013-04-18 07:52:00,
2013-04-18 04:02:00,61.0,60.0,30.07,ESE,110,1.0,-999.0,95,-99.99,,,-99.99,,2013-04-18 08:02:00,
2013-04-18 04:12:00,61.0,60.0,30.08,ESE,110,1.0,-999.0,95,-99.99,,,-99.99,,2013-04-18 08:12:00,
2013-04-18 04:22:00,61.0,60.0,30.08,ESE,110,1.0,-999.0,95,-99.99,,,-99.99,,2013-04-18 08:22:00,
2013-04-18 04:32:00,61.0,60.0,30.09,ESE,110,0.0,-999.0,95,-99.99,,,-99.99,,2013-04-18 08:32:00,
2013-04-18 04:42:00,61.0,60.0,30.09,ESE,110,0.0,-999.0,95,-99.99,,,-99.99,,2013-04-18 08:42:00,
2013-04-18 04:52:00,61.0,60.0,30.09,ESE,110,0.0,-999.0,95,-99.99,,,-99.99,,2013-04-18 08:52:00,
2013-04-18 05:02:00,61.0,60.0,30.08,ESE,110,0.0,-999.0,95,-99.99,,,-99.99,,2013-04-18 09:02:00,
2013-04-18 05:12:00,61.0,60.0,30.08,ESE,110,0.0,-999.0,95,-99.99,,,-99.99,,2013-04-18 09:12:00,
2013-04-18 05:22:00,61.0,60.0,30.08,ESE,110,0.0,-999.0,95,-99.99,,,-99.99,,2013-04-18 09:22:00,
2013-04-18 05:33:00,60.0,59.0,30.09,ESE,111,0.0,-999.0,95,-99.99,,,-99.99,,2013-04-18 09:33:00,
2013-04-18 05:43:00,60.0,59.0,30.09,ESE,110,0.0,-999.0,95,-99.99,,,-99.99,,2013-04-18 09:43:00,
2013-04-18 05:53:00,60.0,59.0,30.09,ESE,110,0.0,-999.0,95,-99.99,,,-99.99,,2013-04-18 09:53:00,
2013-04-18 06:03:00,60.0,59.0,30.09,ESE,110,0.0,-999.0,95,-99.99,,,-99.99,,2013-04-18 10:03:00,
2013-04-18 06:12:00,60.0,59.0,30.09,ESE,110,0.0,-999.0,95,-99.99,,,-99.99,,2013-04-18 10:12:00,
2013-04-18 06:23:00,60.0,59.0,30.09,ESE,110,0.0,-999.0,95,-99.99,,,-99.99,,2013-04-18 10:23:00,
2013-04-18 06:33:00,60.0,59.0,30.09,ESE,110,0.0,-999.0,96,-99.99,,,-99.99,,2013-04-18 10:33:00,
2013-04-18 06:42:00,60.0,59.0,30.09,ESE,110,0.0,-999.0,96,-99.99,,,-99.99,,2013-04-18 10:42:00,
2013-04-18 06:52:00,59.0,58.0,30.09,ESE,111,0.0,-999.0,96,-99.99,,,-99.99,,2013-04-18 10:52:00,
2013-04-18 07:03:00,60.0,59.0,30.09,ESE,110,0.0,-999.0,96,-99.99,,,-99.99,,2013-04-18 11:03:00,
2013-04-18 07:12:00,60.0,59.0,30.09,ESE,110,0.0,-999.0,96,-99.99,,,-99.99,,2013-04-18 11:12:00,
2013-04-18 07:22:00,60.0,59.0,30.09,ESE,110,0.0,-999.0,96,-99.99,,,-99.99,,2013-04-18 11:22:00,
2013-04-18 07:32:00,60.0,59.0,30.09,ESE,111,0.0,-999.0,96,-99.99,,,-99.99,,2013-04-18 11:32:00,
2013-04-18 07:42:00,60.0,59.0,30.09,ESE,111,0.0,-999.0,96,-99.99,,,-99.99,,2013-04-18 11:42:00,
2013-04-18 07:52:00,60.0,59.0,30.09,ESE,110,0.0,-999.0,96,-99.99,,,-99.99,,2013-04-18 11:52:00,
2013-04-18 08:02:00,60.0,59.0,30.09,ESE,110,0.0,-999.0,96,-99.99,,,-99.99,,2013-04-18 12:02:00,
2013-04-18 08:12:00,60.0,59.0,30.09,ESE,110,0.0,-999.0,96,-99.99,,,-99.99,,2013-04-18 12:12:00,
2013-04-18 08:23:00,61.0,60.0,30.10,ESE,110,0.0,-999.0,96,-99.99,,,-99.99,,2013-04-18 12:23:00,
2013-04-18 08:32:00,61.0,60.0,30.09,ESE,111,0.0,-999.0,96,-99.99,,,-99.99,,2013-04-18 12:32:00,
2013-04-18 08:42:00,61.0,60.0,30.09,ESE,111,0.0,-999.0,96,-99.99,,,-99.99,,2013-04-18 12:42:00,
2013-04-18 08:52:00,61.0,60.0,30.09,ESE,111,0.0,-999.0,96,-99.99,,,-99.99,,2013-04-18 12:52:00,
2013-04-18 09:03:00,61.0,60.0,30.09,ESE,110,0.0,-999.0,95,-99.99,,,-99.99,,2013-04-18 13:03:00,
2013-04-18 09:12:00,61.0,60.0,30.09,ESE,110,0.0,-999.0,95,-99.99,,,-99.99,,2013-04-18 13:12:00,
2013-04-18 09:22:00,62.0,61.0,30.10,ESE,110,0.0,-999.0,95,-99.99,,,-99.99,,2013-04-18 13:22:00,
2013-04-18 09:33:00,63.0,61.0,30.10,ESE,111,1.0,-999.0,92,-99.99,,,-99.99,,2013-04-18 13:33:00,
2013-04-18 09:42:00,64.0,61.0,30.10,ESE,110,1.0,-999.0,90,-99.99,,,-99.99,,2013-04-18 13:42:00,
2013-04-18 09:52:00,64.0,61.0,30.10,ESE,110,1.0,-999.0,90,-99.99,,,-99.99,,2013-04-18 13:52:00,
2013-04-18 10:03:00,64.0,60.0,30.11,SE,126,2.0,-999.0,88,-99.99,,,-99.99,,2013-04-18 14:03:00,
2013-04-18 10:12:00,65.0,61.0,30.11,SE,143,0.0,-999.0,88,-99.99,,,-99.99,,2013-04-18 14:12:00,
2013-04-18 10:22:00,65.0,61.0,30.11,SE,143,0.0,-999.0,88,-99.99,,,-99.99,,2013-04-18 14:22:00,
2013-04-18 10:33:00,65.0,61.0,30.11,SE,146,1.0,-999.0,86,-99.99,,,-99.99,,2013-04-18 14:33:00,
2013-04-18 10:43:00,65.0,61.0,30.11,SE,146,1.0,-999.0,86,-99.99,,,-99.99,,2013-04-18 14:43:00,
2013-04-18 10:52:00,65.0,61.0,30.11,SE,131,1.0,-999.0,86,-99.99,,,-99.99,,2013-04-18 14:52:00,
2013-04-18 11:03:00,66.0,61.0,30.11,SE,131,1.0,-999.0,85,-99.99,,,-99.99,,2013-04-18 15:03:00,
2013-04-18 11:12:00,66.0,61.0,30.11,SE,131,1.0,-999.0,85,-99.99,,,-99.99,,2013-04-18 15:12:00,
2013-04-18 11:22:00,67.0,62.0,30.11,ESE,102,1.0,-999.0,83,-99.99,,,-99.99,,2013-04-18 15:22:00,
2013-04-18 11:33:00,68.0,62.0,30.11,ESE,122,2.0,-999.0,82,-99.99,,,-99.99,,2013-04-18 15:33:00,
2013-04-18 11:43:00,69.0,63.0,30.10,SE,132,2.0,-999.0,80,-99.99,,,-99.99,,2013-04-18 15:43:00,
2013-04-18 11:52:00,69.0,63.0,30.10,SE,132,2.0,-999.0,80,-99.99,,,-99.99,,2013-04-18 15:52:00,
2013-04-18 12:03:00,71.0,63.0,30.10,SE,143,2.0,-999.0,75,-99.99,,,-99.99,,2013-04-18 16:03:00,
2013-04-18 12:13:00,71.0,62.0,30.10,SE,138,4.0,-999.0,73,-99.99,,,-99.99,,2013-04-18 16:13:00,
2013-04-18 12:23:00,71.0,62.0,30.10,SE,138,4.0,-999.0,73,-99.99,,,-99.99,,2013-04-18 16:23:00,
2013-04-18 12:33:00,72.0,60.0,30.10,SSE,159,5.0,-999.0,67,-99.99,,,-99.99,,2013-04-18 16:33:00,
2013-04-18 12:43:00,72.0,60.0,30.09,East,88,5.0,-999.0,67,-99.99,,,-99.99,,2013-04-18 16:43:00,
2013-04-18 12:52:00,72.0,60.0,30.09,East,88,5.0,-999.0,67,-99.99,,,-99.99,,2013-04-18 16:52:00,
2013-04-18 13:03:00,73.0,62.0,30.09,SSE,161,5.0,-999.0,68,-99.99,,,-99.99,,2013-04-18 17:03:00,
2013-04-18 13:13:00,73.0,62.0,30.09,SSE,161,5.0,-999.0,68,-99.99,,,-99.99,,2013-04-18 17:13:00,
2013-04-18 13:22:00,73.0,61.0,30.08,SE,125,6.0,-999.0,67,-99.99,,,-99.99,,2013-04-18 17:22:00,
2013-04-18 13:33:00,74.0,61.0,30.08,SE,144,5.0,-999.0,64,-99.99,,,-99.99,,2013-04-18 17:33:00,
2013-04-18 13:43:00,74.0,61.0,30.08,SE,144,5.0,-999.0,64,-99.99,,,-99.99,,2013-04-18 17:43:00,
2013-04-18 13:52:00,75.0,61.0,30.07,SE,128,6.0,-999.0,62,-99.99,,,-99.99,,2013-04-18 17:52:00,
2013-04-18 14:03:00,76.0,61.0,30.06,ESE,104,4.0,-999.0,59,-99.99,,,-99.99,,2013-04-18 18:03:00,
2013-04-18 14:13:00,77.0,61.0,30.06,SE,137,6.0,-999.0,57,-99.99,,,-99.99,,2013-04-18 18:13:00,
2013-04-18 14:23:00,77.0,61.0,30.06,SE,137,6.0,-999.0,57,-99.99,,,-99.99,,2013-04-18 18:23:00,
2013-04-18 14:32:00,77.0,60.0,30.05,South,185,3.0,-999.0,55,-99.99,,,-99.99,,2013-04-18 18:32:00,
2013-04-18 14:43:00,77.0,60.0,30.05,South,185,3.0,-999.0,55,-99.99,,,-99.99,,2013-04-18 18:43:00,
2013-04-18 14:52:00,76.0,59.0,30.05,South,173,4.0,-999.0,56,-99.99,,,-99.99,,2013-04-18 18:52:00,
2013-04-18 15:03:00,78.0,61.0,30.04,SSE,148,3.0,-999.0,56,-99.99,,,-99.99,,2013-04-18 19:03:00,
2013-04-18 15:13:00,78.0,61.0,30.04,SSE,148,3.0,-999.0,56,-99.99,,,-99.99,,2013-04-18 19:13:00,
2013-04-18 15:22:00,79.0,60.0,30.03,ENE,65,2.0,-999.0,52,-99.99,,,-99.99,,2013-04-18 19:22:00,
2013-04-18 15:32:00,78.0,59.0,30.03,SE,133,5.0,-999.0,53,-99.99,,,-99.99,,2013-04-18 19:32:00,
2013-04-18 15:42:00,78.0,59.0,30.03,SE,133,5.0,-999.0,53,-99.99,,,-99.99,,2013-04-18 19:42:00,
2013-04-18 15:52:00,79.0,60.0,30.01,ESE,122,4.0,-999.0,52,-99.99,,,-99.99,,2013-04-18 19:52:00,
2013-04-18 16:03:00,80.0,59.0,30.01,South,190,4.0,-999.0,48,-99.99,,,-99.99,,2013-04-18 20:03:00,
2013-04-18 16:12:00,80.0,59.0,30.01,South,190,4.0,-999.0,48,-99.99,,,-99.99,,2013-04-18 20:12:00,
2013-04-18 16:22:00,79.0,60.0,30.00,SE,146,6.0,-999.0,52,-99.99,,,-99.99,,2013-04-18 20:22:00,
2013-04-18 16:32:00,79.0,60.0,29.99,SE,128,4.0,-999.0,52,-99.99,,,-99.99,,2013-04-18 20:32:00,
2013-04-18 16:42:00,79.0,60.0,29.98,East,100,4.0,-999.0,52,-99.99,,,-99.99,,2013-04-18 20:42:00,
2013-04-18 16:52:00,79.0,60.0,29.98,East,100,4.0,-999.0,52,-99.99,,,-99.99,,2013-04-18 20:52:00,
2013-04-18 17:02:00,79.0,60.0,29.97,SE,124,4.0,-999.0,52,-99.99,,,-99.99,,2013-04-18 21:02:00,
2013-04-18 17:12:00,79.0,60.0,29.97,SE,124,4.0,-999.0,52,-99.99,,,-99.99,,2013-04-18 21:12:00,
2013-04-18 17:22:00,79.0,60.0,29.96,SE,143,3.0,-999.0,53,-99.99,,,-99.99,,2013-04-18 21:22:00,
2013-04-18 17:33:00,79.0,60.0,29.96,East,92,4.0,-999.0,53,-99.99,,,-99.99,,2013-04-18 21:33:00,
2013-04-18 17:43:00,79.0,60.0,29.96,East,95,5.0,-999.0,52,-99.99,,,-99.99,,2013-04-18 21:43:00,
2013-04-18 17:53:00,79.0,60.0,29.96,East,95,5.0,-999.0,52,-99.99,,,-99.99,,2013-04-18 21:53:00,
2013-04-18 18:03:00,79.0,60.0,29.95,SE,141,4.0,-999.0,52,-99.99,,,-99.99,,2013-04-18 22:03:00,
2013-04-18 18:13:00,79.0,60.0,29.95,South,178,4.0,-999.0,52,-99.99,,,-99.99,,2013-04-18 22:13:00,
2013-04-18 18:23:00,79.0,60.0,29.95,South,178,4.0,-999.0,52,-99.99,,,-99.99,,2013-04-18 22:23:00,
2013-04-18 18:33:00,78.0,59.0,29.95,SSE,159,5.0,-999.0,53,-99.99,,,-99.99,,2013-04-18 22:33:00,
2013-04-18 18:42:00,78.0,60.0,29.95,SE,145,2.0,-999.0,54,-99.99,,,-99.99,,2013-04-18 22:42:00,
2013-04-18 18:52:00,78.0,60.0,29.95,SE,145,2.0,-999.0,54,-99.99,,,-99.99,,2013-04-18 22:52:00,
2013-04-18 19:04:00,78.0,61.0,29.95,SSE,161,2.0,-999.0,56,-99.99,,,-99.99,,2013-04-18 23:04:00,
2013-04-18 19:12:00,77.0,61.0,29.94,SE,136,2.0,-999.0,58,-99.99,,,-99.99,,2013-04-18 23:12:00,
2013-04-18 19:22:00,77.0,61.0,29.94,SE,136,2.0,-999.0,58,-99.99,,,-99.99,,2013-04-18 23:22:00,
2013-04-18 19:32:00,77.0,63.0,29.93,SE,132,4.0,-999.0,62,-99.99,,,-99.99,,2013-04-18 23:32:00,
2013-04-18 19:42:00,76.0,63.0,29.94,SE,139,3.0,-999.0,65,-99.99,,,-99.99,,2013-04-18 23:42:00,
2013-04-18 19:52:00,76.0,63.0,29.94,SE,139,3.0,-999.0,65,-99.99,,,-99.99,,2013-04-18 23:52:00,
2013-04-18 20:01:00,75.0,63.0,29.94,ESE,113,4.0,-999.0,67,-99.99,,,-99.99,,2013-04-19 00:01:00,
2013-04-18 20:12:00,75.0,63.0,29.94,ESE,113,4.0,-999.0,67,-99.99,,,-99.99,,2013-04-19 00:12:00,
2013-04-18 20:22:00,74.0,64.0,29.93,SE,134,4.0,-999.0,70,-99.99,,,-99.99,,2013-04-19 00:22:00,
2013-04-18 20:32:00,73.0,63.0,29.94,ESE,120,4.0,-999.0,72,-99.99,,,-99.99,,2013-04-19 00:32:00,
2013-04-18 20:42:00,73.0,63.0,29.94,ESE,120,4.0,-999.0,72,-99.99,,,-99.99,,2013-04-19 00:42:00,
2013-04-18 20:51:00,73.0,64.0,29.95,SE,132,3.0,-999.0,74,-99.99,,,-99.99,,2013-04-19 00:51:00,
2013-04-18 21:01:00,72.0,64.0,29.95,SE,130,2.0,-999.0,75,-99.99,,,-99.99,,2013-04-19 01:01:00,
2013-04-18 21:11:00,72.0,64.0,29.95,SE,130,2.0,-999.0,75,-99.99,,,-99.99,,2013-04-19 01:11:00,
2013-04-18 21:21:00,72.0,64.0,29.96,SE,126,1.0,-999.0,77,-99.99,,,-99.99,,2013-04-19 01:21:00,
2013-04-18 21:32:00,71.0,64.0,29.95,SE,126,0.0,-999.0,78,-99.99,,,-99.99,,2013-04-19 01:32:00,
2013-04-18 21:42:00,71.0,64.0,29.95,SE,126,0.0,-999.0,78,-99.99,,,-99.99,,2013-04-19 01:42:00,
2013-04-18 21:52:00,71.0,65.0,29.96,SE,127,1.0,-999.0,80,-99.99,,,-99.99,,2013-04-19 01:52:00,
2013-04-18 22:02:00,70.0,64.0,29.95,SE,136,1.0,-999.0,80,-99.99,,,-99.99,,2013-04-19 02:02:00,
2013-04-18 22:11:00,70.0,64.0,29.95,SE,136,1.0,-999.0,80,-99.99,,,-99.99,,2013-04-19 02:11:00,
2013-04-18 22:21:00,70.0,64.0,29.95,SE,139,2.0,-999.0,81,-99.99,,,-99.99,,2013-04-19 02:21:00,
2013-04-18 22:32:00,70.0,64.0,29.95,SE,138,1.0,-999.0,81,-99.99,,,-99.99,,2013-04-19 02:32:00,
2013-04-18 22:42:00,70.0,64.0,29.95,SE,138,1.0,-999.0,81,-99.99,,,-99.99,,2013-04-19 02:42:00,
2013-04-18 22:52:00,70.0,64.0,29.95,SE,128,1.0,-999.0,81,-99.99,,,-99.99,,2013-04-19 02:52:00,
2013-04-18 23:01:00,70.0,64.0,29.94,SE,132,2.0,-999.0,82,-99.99,,,-99.99,,2013-04-19 03:01:00,
2013-04-18 23:12:00,70.0,64.0,29.94,SE,132,2.0,-999.0,82,-99.99,,,-99.99,,2013-04-19 03:12:00,
2013-04-18 23:22:00,69.0,63.0,29.93,ESE,113,3.0,-999.0,82,-99.99,,,-99.99,,2013-04-19 03:22:00,
2013-04-18 23:33:00,69.0,63.0,29.93,SE,128,3.0,-999.0,82,-99.99,,,-99.99,,2013-04-19 03:33:00,
2013-04-18 23:43:00,69.0,63.0,29.93,SE,128,3.0,-999.0,82,-99.99,,,-99.99,,2013-04-19 03:43:00,
2013-04-18 23:53:00,69.0,63.0,29.93,SE,146,3.0,-999.0,82,-99.99,,,-99.99,,2013-04-19 03:53:00,